Home   Weather   Río Gallegos   Past weeks

Flag for Argentina Past Weather in Río Gallegos, Santa Cruz, Argentina — Yesterday and Last 2 Weeks

Now
59 °F

Scattered clouds.


Feels Like: 59 °F
Forecast: 46 / 54 °F
Wind: 5 mph from North

Location: Rio Gallegos Aerodrome

Current Time: Apr 24, 2017 at 4:36:46 pm

Latest Report: Apr 24, 2017 at 4:00 pm


Visibility: N/A

Pressure: 29.36 "Hg

Humidity: 55%

Dew Point: 43 °F

Location of Río GallegosLocation

Past Weather in Río Gallegos — Graph

°F

Río Gallegos Temperature Yesterday

Maximum temperature yesterday: 48 °F (at 3:00 pm)
Minimum temperature yesterday: 28 °F (at 8:00 am)
Average temperature yesterday: 39 °F

High & Low Weather Summary for the Past Weeks

 TemperatureHumidityPressure
High63 °F (Apr 18, 6:00 pm)100% (Apr 10, 7:00 am)30.27 "Hg (Apr 10, 7:00 am)
Low28 °F (Apr 23, 8:00 am)20% (Apr 19, 3:00 pm)29.21 "Hg (Apr 18, 4:00 pm)
Average46 °F70%29.80 "Hg
* Reported Apr 9 2:00 pm — Apr 24 2:00 pm, Río Gallegos, Weather by CustomWeather, © 2017

Note: Actual official high and low records may vary slightly from our data, if they occured in-between our weather recording intervals... More about our weather records

Advertising

Río Gallegos Weather History for the Previous 24 Hours

Scroll right to see more
 ConditionsComfort  
Time TempWeatherWind HumidityBarometerVisibility
2:00 pm
Mon, Apr 24
57 °FScattered clouds.6 mph63%29.39 "HgN/A
1:00 pm55 °FPassing clouds.8 mph67%29.39 "HgN/A
12:00 pm52 °FScattered clouds.6 mph82%29.42 "HgN/A
11:00 am50 °FPartly sunny.6 mph76%29.42 "HgN/A
10:00 am48 °FPartly sunny.6 mph87%29.42 "HgN/A
9:00 am48 °FLight rain. Partly sunny.7 mph87%29.45 "HgN/A
8:00 am48 °FPassing clouds.10 mph87%29.45 "HgN/A
7:00 am48 °FPassing clouds.6 mph94%29.45 "HgN/A
6:00 am48 °FPassing clouds.9 mph94%29.47 "HgN/A
5:00 am48 °FPassing clouds.10 mph87%29.50 "HgN/A
4:00 am48 °FPassing clouds.10 mph87%29.53 "HgN/A
3:00 am48 °FPassing clouds.12 mph87%29.56 "HgN/A
2:00 am46 °FPassing clouds.12 mph87%29.59 "HgN/A
1:00 am45 °FPassing clouds.10 mph87%29.62 "HgN/A
12:00 am45 °FPassing clouds.12 mph87%29.62 "HgN/A
11:00 pm
Sun, Apr 23
45 °FClear.5 mph87%29.65 "Hg10 mi
10:00 pm45 °FPassing clouds.8 mph81%29.65 "HgN/A
9:00 pm45 °FPassing clouds.8 mph87%29.68 "HgN/A
8:00 pm46 °FPassing clouds.13 mph76%29.71 "HgN/A
7:00 pm45 °FClear.10 mph81%29.71 "Hg10 mi
6:00 pm46 °FSunny.9 mph76%29.71 "Hg10 mi
5:00 pm48 °FSunny.10 mph62%29.71 "Hg10 mi
4:00 pm48 °FSunny.9 mph62%29.74 "Hg10 mi
Weather by CustomWeather, © 2017

See weather overviewHow to use our weather pages